Temperature
17 17 17 17 17 17 16 17 17 16 17 17 17 17 17 17 17 17 17 17 18 18 18 18 18 17 17 17 17 17 17 17 17 17 17 17 17 17 17 17 17 17 16
16 16 16 16 16 16 16 16 16 16 16 16 16 16 17 17 17 17 17 17 17 18 18 18 18 18 17 17 17 17 17 17 17 17 17 17 17 17 17 17 17 17 16
16 16 15 15 15 15 15 15 15 15 16 16 16 16 16 16 16 16 16 17 17 17 17 17 18 18 17 17 17 17 17 17 17 17 17 17 17 17 17 17 17 16 16
15 15 15 15 15 15 15 15 15 15 15 15 15 15 16 16 16 16 16 16 16 16 17 17 17 17 17 17 17 17 17 17 17 17 17 17 17 17 17 17 17 16 16
14 14 14 14 14 14 14 14 14 14 14 14 15 15 15 15 16 16 16 16 16 16 16 16 17 17 17 17 17 17 17 17 17 17 17 17 17 17 17 17 16 16 16
14 14 14 13 13 13 13 13 13 13 13 14 14 15 15 15 15 16 16 16 16 16 16 16 16 16 17 17 17 17 17 17 17 17 17 17 17 17 17 17 16 16 16
13 13 13 13 13 13 12 13 13 13 13 13 14 15 15 15 16 15 15 16 16 16 16 16 16 16 16 17 17 17 17 17 17 17 17 17 17 17 17 17 16 16 16
13 12 12 12 12 12 12 12 12 12 13 13 13 14 16 16 16 16 15 15 15 15 15 15 15 16 16 16 16 17 17 17 17 17 17 17 17 17 17 17 17 16 16
12 12 11 11 11 11 12 11 11 12 12 13 13 13 15 16 16 16 15 15 15 15 15 15 15 15 15 16 16 16 17 17 17 17 17 17 17 16 16 16 16 16 16
11 11 11 11 11 11 11 11 12 11 11 12 13 12 13 13 13 15 15 15 14 14 14 14 15 15 15 15 16 16 16 16 17 17 17 17 17 16 16 16 16 16 16
11 11 10 10 10 10 10 10 10 10 11 11 12 12 13 12 12 13 14 14 14 14 14 14 14 14 15 15 15 15 16 16 16 17 17 17 16 16 16 16 16 16 16
11 11 10 10 10 10 10 10 10 10 10 10 11 11 12 12 13 13 13 13 14 14 14 14 14 14 15 15 15 15 15 16 16 16 16 16 16 16 16 16 16 16 16
11 11 10 10 10 9 9 9 9 9 10 10 10 10 11 12 12 12 13 13 13 13 14 14 14 14 14 14 15 15 15 15 16 16 16 16 16 16 16 16 16 16 16
11 10 10 9 9 9 9 9 9 9 9 9 9 10 10 11 11 11 12 12 13 13 14 14 14 14 14 14 14 14 15 15 15 16 16 16 16 16 16 16 16 16 16
10 10 10 9 9 9 9 9 9 9 9 9 9 10 10 10 10 11 11 11 12 13 13 13 13 13 13 13 14 14 14 15 15 15 16 16 16 16 16 16 16 16 16
10 10 10 9 9 9 9 9 9 9 9 9 9 9 9 10 10 10 11 11 11 12 12 13 13 13 13 13 13 14 14 14 15 15 15 16 16 16 16 16 16 16 16
10 10 9 9 9 9 9 9 9 9 9 9 9 9 9 9 9 10 10 10 11 11 11 12 12 12 12 12 13 13 14 14 15 15 15 15 16 16 16 16 16 16 16
10 9 9 9 9 9 9 9 9 9 9 9 9 9 9 9 9 9 9 10 10 10 11 11 12 12 12 12 12 13 13 14 14 15 15 15 15 16 16 16 16 16 16
9 9 9 9 9 9 9 9 9 9 9 9 9 9 9 9 9 9 9 9 10 10 10 11 11 11 11 12 12 13 13 13 14 14 15 15 15 15 16 16 16 16 16
9 9 9 9 9 9 9 9 9 9 9 9 8 8 8 8 8 8 9 9 9 10 10 10 11 11 11 12 12 12 13 13 13 14 14 15 15 15 16 16 16 16 16
9 9 9 9 9 9 9 9 9 9 8 8 8 8 8 8 8 8 9 9 9 9 10 11 11 11 12 12 12 12 12 13 13 13 14 14 15 15 15 15 16 16 16
9 9 9 9 9 9 9 9 8 8 8 8 8 8 8 8 8 8 8 9 9 8 9 10 11 11 11 11 11 12 12 12 13 13 13 14 14 14 15 15 15 15 16
9 9 9 9 9 9 9 9 8 8 8 8 8 8 8 9 8 8 8 8 8 8 8 8 9 10 11 11 11 11 11 12 12 13 13 13 13 13 14 14 15 15 15
9 9 9 9 9 9 9 8 8 8 8 8 8 8 8 8 8 8 8 8 8 8 8 8 8 9 9 9 10 10 11 11 12 12 12 12 12 13 13 14 14 14 15
9 9 9 9 9 9 8 8 8 8 8 8 8 8 8 8 8 7 7 7 8 8 8 8 8 8 9 9 9 10 10 11 11 12 12 12 12 12 12 13 13 13 14
9 9 9 9 9 9 8 8 8 7 7 8 8 8 8 7 7 7 7 7 7 8 8 8 8 8 9 9 9 9 10 10 11 11 11 12 12 12 12 12 12 12 13
Wind_Speed
3 3 3 3 4 5 5 5 6 7 8 9 11 12 12 14 15 15 12 13 17 19 20 20 20 21 22 23 23 23 22 22 21 20 20 19 19 19 18 17 17 16 15
2 2 3 3 4 5 5 5 6 7 7 7 9 10 12 14 15 15 16 14 17 20 21 21 22 22 23 24 25 25 25 24 24 23 22 22 21 21 20 19 19 18 17
3 3 3 3 3 5 5 5 6 6 7 8 9 10 11 12 14 15 16 15 16 20 23 23 23 23 23 24 25 27 27 27 26 26 25 24 23 23 22 21 20 20 19
3 4 4 3 4 5 5 4 5 6 7 7 8 8 9 10 13 14 15 16 16 16 20 25 25 24 24 25 26 27 28 29 29 28 27 26 25 25 24 24 22 22 21
3 4 4 4 6 6 5 6 5 6 7 7 8 9 9 10 11 13 13 16 17 17 17 19 25 26 26 27 27 28 29 30 30 29 29 28 27 26 26 26 25 24 23
4 6 5 4 7 7 6 5 6 6 8 8 9 10 10 11 11 12 13 13 15 17 18 18 18 21 27 27 28 29 29 30 31 31 31 31 30 28 28 28 27 26 25
4 5 6 5 6 7 7 8 7 8 8 7 9 10 10 11 10 9 10 10 12 14 15 16 17 17 18 27 29 28 29 31 31 32 32 32 31 30 30 29 29 28 27
4 5 5 7 6 6 7 7 7 8 8 6 8 9 9 8 6 7 7 8 9 9 11 14 15 16 17 17 21 29 30 31 32 32 32 32 32 32 31 31 31 30 29
5 5 6 7 7 8 7 7 8 9 9 8 7 7 7 7 7 5 5 5 5 6 8 9 12 15 17 17 18 24 31 32 32 32 32 32 32 32 32 32 32 31 31
6 6 7 7 7 8 7 8 7 7 9 9 7 7 8 8 7 7 6 5 5 6 7 7 8 10 14 15 17 20 26 31 32 33 33 32 31 31 32 33 33 32 32
6 7 7 7 7 7 7 7 8 9 9 9 9 8 8 8 10 10 10 8 7 7 6 7 8 8 11 13 14 19 23 27 30 31 32 32 32 32 32 33 34 33 33
6 6 7 7 8 8 7 8 8 9 9 9 9 10 9 9 9 9 11 11 10 9 8 7 8 8 9 12 14 16 19 23 26 29 30 32 32 33 33 33 34 33 33
7 6 7 7 8 7 8 9 9 9 9 10 10 10 10 10 10 10 11 11 11 10 8 8 6 6 7 8 10 12 16 19 22 25 28 30 31 33 34 34 34 34 33
8 8 8 9 9 9 9 9 9 10 9 10 11 11 10 11 10 10 11 11 11 10 9 8 5 5 4 5 6 8 12 17 20 23 26 28 30 32 33 34 34 34 34
9 9 9 10 10 9 10 10 9 10 10 11 11 11 11 11 10 11 11 11 11 12 11 8 6 4 3 5 5 8 10 12 17 20 23 26 28 30 31 32 33 33 33
10 10 10 10 10 10 10 10 11 10 10 11 10 11 11 11 10 10 11 11 11 12 13 10 7 7 6 7 7 9 9 10 14 18 21 24 26 28 30 31 32 32 32
10 10 11 11 11 11 11 11 12 12 12 12 12 12 13 13 11 11 11 11 11 11 13 12 10 8 8 9 8 7 8 8 9 14 17 20 22 25 27 29 30 31 30
10 11 11 11 12 12 12 12 13 13 13 13 13 13 13 12 13 12 12 12 12 11 12 14 12 10 9 8 8 8 6 6 6 9 14 17 19 22 25 27 29 29 29
11 11 11 12 12 13 13 13 13 13 13 14 13 14 14 13 14 13 13 13 12 12 12 13 13 10 9 8 7 7 7 5 6 7 11 14 17 19 22 24 26 27 28
11 12 12 12 13 13 13 13 13 13 14 14 14 14 14 14 14 14 13 13 13 13 12 13 12 11 9 8 7 7 6 5 5 5 5 7 11 15 18 21 24 25 26
12 12 12 13 13 12 12 12 12 13 14 14 14 14 15 14 13 12 12 13 12 12 12 12 12 11 10 8 8 6 6 5 4 4 4 5 7 8 11 15 18 21 23
12 12 12 13 13 12 7 6 11 14 15 15 15 14 14 14 15 16 17 17 16 15 14 13 12 12 11 10 8 7 7 6 4 4 4 4 5 6 6 8 14 19 21
12 12 13 13 13 13 9 10 11 13 15 15 15 14 13 13 12 14 16 20 21 21 20 17 16 14 12 10 10 10 9 7 5 4 4 3 3 4 3 5 12 16 18
11 12 12 13 13 13 9 10 11 14 15 16 16 15 15 15 14 13 14 15 16 17 18 18 17 17 15 12 10 11 9 7 5 4 4 3 2 3 3 5 8 12 15
12 12 13 13 13 13 10 10 10 12 13 15 15 14 14 14 11 9 14 16 16 15 15 15 15 14 12 10 9 9 9 8 6 5 4 4 4 3 3 3 5 10 13
12 13 13 13 13 14 9 8 9 11 12 12 12 12 12 13 10 7 13 15 16 15 14 14 15 16 16 16 14 14 12 10 7 5 5 5 5 5 4 2 3 5 8
Wind_Direction
286 285 284 281 274 269 266 272 276 274 268 258 253 249 248 246 246 245 244 207 209 217 223 225 225 223 219 217 214 212 210 208 206 204 202 200 196 193 193 192 190 187 185
326 300 279 295 294 287 293 287 283 280 276 271 263 256 252 249 245 243 245 234 218 219 223 226 227 226 224 220 217 215 214 211 209 207 205 204 201 198 198 197 196 193 191
359 322 308 287 300 294 284 278 282 277 271 270 266 264 258 254 251 247 245 243 235 223 221 224 227 228 226 224 222 218 215 213 210 208 207 207 205 202 201 201 200 198 196
325 304 302 306 315 294 290 287 279 287 285 281 276 272 267 260 256 251 247 242 240 238 223 220 224 227 227 226 225 223 218 214 211 210 208 208 208 206 205 204 202 201 200
315 300 304 316 294 287 288 291 296 295 292 288 281 270 265 261 258 253 249 247 242 239 238 223 218 224 228 228 226 224 221 216 212 211 210 210 210 209 208 206 205 204 203
320 309 292 304 298 289 287 291 296 285 287 287 288 284 273 265 258 254 251 248 243 240 238 237 228 225 225 228 228 225 222 218 215 213 213 212 211 211 210 208 207 206 205
327 309 307 308 294 291 294 290 287 281 275 288 287 284 274 257 251 252 250 252 246 242 240 238 237 237 229 222 225 226 223 219 216 214 214 213 211 211 211 209 208 207 207
309 301 314 301 301 297 278 280 276 286 288 282 289 296 290 272 237 247 249 246 250 249 244 239 237 236 239 233 223 221 222 220 216 214 213 213 212 211 212 210 209 208 208
301 308 304 304 306 292 289 290 280 271 282 284 277 289 295 296 311 261 252 261 264 261 257 253 244 239 238 237 234 221 218 217 216 215 214 213 213 212 212 212 211 210 209
295 297 297 296 295 294 294 281 281 282 272 276 271 260 271 296 292 291 272 260 268 270 269 265 258 247 241 239 235 233 220 214 214 215 214 213 213 213 213 214 214 213 212
286 290 294 295 291 287 293 296 294 280 274 272 278 276 269 264 259 271 283 287 285 280 275 271 266 258 246 241 237 233 222 214 213 214 214 213 214 215 215 216 216 216 215
289 288 289 288 283 287 288 282 282 273 272 277 277 275 273 272 272 273 278 282 285 286 286 279 266 256 249 242 239 237 226 216 214 214 213 213 213 214 216 217 218 217 217
295 297 297 289 285 282 280 279 274 277 273 269 266 269 271 271 274 276 278 281 283 284 280 271 263 260 254 248 243 240 233 222 217 215 214 213 212 214 215 216 218 218 218
299 305 292 284 280 278 276 273 274 269 266 266 265 268 271 268 270 268 271 279 281 280 274 273 278 274 278 274 265 252 243 227 221 218 216 215 214 214 213 213 215 217 217
292 291 288 284 280 275 273 272 270 272 270 266 265 259 257 265 263 265 266 267 273 279 277 276 269 265 289 291 283 264 254 235 224 223 220 217 215 214 212 211 212 212 214
290 289 286 283 279 275 269 266 269 264 264 264 264 270 269 267 266 263 263 262 261 266 274 276 275 275 291 293 284 273 261 247 231 226 222 219 216 214 211 211 211 210 211
289 285 285 284 281 277 272 267 267 271 266 266 263 260 257 262 266 266 262 259 259 260 267 272 270 273 276 280 282 275 263 251 234 221 221 219 216 213 210 209 209 208 209
285 285 284 282 280 277 274 269 267 268 267 266 265 264 261 258 254 258 263 262 261 262 265 271 274 271 268 270 275 270 263 253 244 214 216 217 213 212 210 208 207 206 207
285 285 284 282 280 280 276 271 269 269 268 267 266 264 262 260 258 256 257 259 260 257 256 263 267 267 265 262 266 260 255 249 244 215 207 212 210 207 207 206 205 205 205
286 286 285 284 282 280 277 274 271 270 269 268 266 263 261 258 256 256 256 255 258 261 259 259 263 263 256 252 250 252 244 234 233 218 201 198 197 199 200 201 202 202 202
286 288 288 286 283 279 275 278 280 277 274 271 267 263 260 257 261 262 262 260 256 253 255 255 256 257 255 249 246 244 243 230 228 219 199 189 183 189 192 196 197 197 196
290 290 287 287 286 284 302 299 282 282 279 274 270 266 263 252 244 238 247 258 265 262 260 261 259 257 259 257 252 249 242 227 226 207 195 193 182 175 178 184 185 186 188
292 290 288 288 286 284 274 262 260 274 275 272 270 268 265 262 248 248 238 234 243 247 252 259 264 265 264 257 257 250 241 238 236 194 185 190 167 156 138 132 160 173 179
292 290 289 288 287 285 269 258 257 267 270 267 266 265 263 264 260 259 260 252 246 240 236 238 247 256 261 268 262 255 256 245 239 214 188 179 159 128 107 105 136 159 168
293 291 289 289 287 286 268 251 255 278 271 269 267 265 264 264 258 247 258 261 260 254 243 237 244 252 270 280 274 261 245 230 227 212 188 165 145 119 103 97 104 137 152
291 292 292 292 291 289 283 252 248 276 277 277 274 269 256 251 263 242 254 257 257 255 254 242 230 235 243 245 236 241 243 233 227 207 182 163 151 141 123 91 98 124 131
Height
1556 1555 1554 1554 1554 1554 1554 1554 1554 1554 1553 1554 1554 1554 1554 1555 1556 1557 1559 1558 1560 1562 1564 1567 1569 1571 1573 1576 1577 1580 1582 1584 1587 1589 1591 1594 1596 1598 1599 1601 1603 1604 1606
1553 1553 1552 1551 1551 1551 1550 1550 1550 1550 1550 1549 1549 1549 1549 1550 1551 1551 1553 1554 1554 1556 1559 1561 1564 1566 1569 1572 1574 1576 1578 1581 1583 1586 1589 1591 1594 1596 1598 1600 1602 1603 1605
1551 1550 1550 1549 1549 1548 1547 1547 1547 1546 1546 1545 1545 1545 1544 1544 1545 1545 1546 1548 1549 1550 1552 1555 1558 1561 1564 1566 1569 1572 1574 1577 1580 1583 1585 1588 1591 1593 1596 1598 1600 1602 1604
1548 1548 1548 1548 1546 1546 1545 1544 1543 1543 1542 1541 1540 1539 1539 1539 1538 1539 1540 1541 1543 1545 1546 1548 1551 1554 1557 1560 1563 1566 1569 1572 1575 1578 1581 1584 1587 1590 1593 1595 1597 1600 1602
1547 1546 1546 1545 1543 1543 1543 1542 1541 1540 1539 1538 1536 1535 1534 1533 1533 1533 1534 1535 1536 1538 1540 1541 1543 1547 1550 1553 1556 1560 1563 1567 1570 1573 1577 1580 1583 1586 1589 1592 1594 1597 1599
1544 1543 1543 1541 1541 1540 1539 1538 1537 1536 1535 1534 1533 1531 1530 1529 1528 1528 1528 1529 1530 1531 1533 1535 1537 1539 1542 1545 1549 1553 1556 1560 1564 1568 1571 1575 1578 1581 1585 1588 1591 1594 1596
1541 1540 1540 1538 1537 1537 1535 1535 1534 1533 1532 1531 1530 1528 1526 1524 1523 1522 1523 1523 1524 1525 1526 1528 1530 1532 1534 1537 1541 1545 1549 1553 1557 1561 1565 1569 1572 1576 1579 1583 1586 1589 1592
1538 1538 1536 1535 1534 1532 1531 1531 1530 1530 1529 1529 1528 1525 1523 1521 1519 1519 1518 1518 1519 1519 1520 1521 1522 1524 1527 1530 1532 1536 1541 1545 1549 1554 1558 1562 1566 1570 1574 1578 1581 1585 1588
1535 1533 1532 1531 1530 1529 1529 1527 1526 1526 1526 1526 1525 1524 1522 1518 1517 1516 1515 1515 1514 1514 1515 1515 1516 1517 1519 1522 1525 1528 1532 1537 1541 1546 1550 1555 1559 1563 1568 1572 1575 1579 1583
1532 1530 1529 1527 1526 1526 1525 1524 1524 1523 1522 1522 1522 1521 1521 1519 1518 1514 1514 1512 1511 1510 1510 1510 1510 1511 1512 1514 1517 1520 1524 1528 1533 1538 1542 1547 1552 1556 1561 1565 1569 1573 1577
1529 1527 1525 1524 1523 1522 1521 1519 1519 1518 1519 1518 1518 1518 1517 1516 1515 1514 1511 1510 1509 1508 1506 1505 1505 1506 1506 1508 1510 1512 1516 1520 1525 1529 1534 1539 1543 1548 1553 1558 1562 1567 1571
1527 1525 1523 1521 1519 1519 1517 1516 1515 1514 1514 1513 1513 1513 1513 1513 1511 1510 1508 1506 1505 1504 1503 1501 1500 1501 1501 1502 1503 1505 1508 1512 1517 1521 1526 1531 1535 1540 1545 1550 1555 1559 1564
1524 1522 1520 1517 1516 1514 1513 1512 1511 1510 1510 1509 1508 1509 1509 1508 1508 1507 1505 1503 1501 1500 1498 1497 1496 1496 1497 1497 1498 1498 1501 1504 1509 1513 1518 1522 1527 1531 1536 1541 1547 1552 1557
1520 1517 1515 1513 1512 1510 1509 1508 1507 1506 1505 1504 1504 1503 1503 1503 1503 1502 1502 1500 1498 1496 1495 1494 1493 1492 1492 1492 1492 1493 1494 1497 1501 1505 1510 1514 1518 1523 1528 1533 1539 1544 1549
1515 1513 1511 1509 1507 1506 1505 1503 1503 1501 1501 1500 1499 1499 1498 1498 1498 1497 1497 1497 1496 1493 1491 1490 1490 1489 1488 1488 1488 1488 1489 1491 1494 1497 1501 1506 1511 1516 1521 1526 1531 1536 1542
1510 1508 1507 1505 1503 1502 1500 1499 1498 1497 1496 1495 1494 1493 1492 1493 1493 1492 1492 1491 1491 1490 1487 1486 1486 1485 1484 1484 1483 1483 1484 1485 1488 1490 1494 1499 1503 1508 1513 1518 1524 1529 1534
1506 1504 1502 1500 1499 1497 1496 1494 1493 1492 1491 1490 1489 1488 1487 1487 1487 1487 1487 1486 1486 1485 1483 1482 1482 1481 1480 1479 1479 1479 1479 1480 1482 1484 1488 1492 1496 1501 1506 1511 1516 1521 1527
1502 1500 1498 1496 1494 1493 1491 1490 1488 1487 1486 1485 1484 1483 1482 1482 1481 1481 1481 1481 1480 1480 1479 1478 1477 1477 1475 1475 1474 1474 1474 1475 1477 1478 1481 1485 1489 1493 1498 1503 1509 1514 1520
1497 1495 1493 1491 1489 1487 1486 1484 1483 1481 1480 1479 1478 1477 1476 1476 1475 1475 1475 1475 1475 1475 1474 1473 1472 1472 1471 1471 1470 1470 1470 1471 1472 1473 1476 1479 1482 1486 1491 1496 1502 1507 1513
1493 1491 1488 1486 1484 1482 1480 1479 1477 1476 1474 1473 1471 1470 1470 1469 1469 1469 1469 1469 1469 1469 1469 1468 1468 1467 1467 1466 1466 1466 1466 1466 1467 1469 1470 1473 1476 1480 1484 1490 1495 1500 1506
1488 1486 1483 1481 1478 1477 1475 1474 1471 1470 1468 1466 1465 1464 1463 1463 1462 1462 1463 1463 1464 1464 1464 1463 1463 1463 1462 1462 1462 1462 1462 1462 1463 1464 1465 1467 1471 1474 1478 1483 1489 1494 1500
1484 1481 1478 1475 1473 1472 1470 1467 1465 1463 1461 1460 1458 1457 1457 1455 1454 1454 1454 1455 1456 1457 1458 1458 1458 1458 1457 1458 1458 1458 1458 1458 1459 1460 1461 1463 1466 1469 1473 1478 1483 1488 1494
1479 1476 1473 1470 1467 1465 1462 1460 1458 1456 1454 1453 1451 1450 1450 1450 1449 1448 1447 1447 1448 1448 1450 1451 1452 1452 1453 1453 1454 1454 1454 1454 1455 1456 1458 1459 1461 1465 1469 1473 1478 1484 1489
1474 1471 1468 1465 1462 1459 1456 1454 1451 1449 1447 1446 1444 1443 1442 1442 1442 1442 1442 1441 1441 1441 1442 1443 1444 1445 1447 1448 1448 1449 1449 1450 1451 1452 1454 1456 1458 1461 1464 1469 1474 1479 1484
1468 1465 1463 1459 1456 1453 1451 1448 1446 1443 1441 1440 1438 1437 1435 1435 1435 1434 1434 1434 1434 1435 1436 1436 1437 1438 1439 1441 1442 1444 1445 1446 1446 1447 1449 1452 1455 1458 1461 1466 1470 1475 1480
1463 1460 1457 1454 1451 1447 1445 1442 1440 1438 1436 1434 1432 1430 1429 1428 1428 1427 1427 1427 1427 1427 1429 1430 1429 1430 1431 1433 1435 1437 1439 1441 1442 1443 1445 1448 1451 1455 1459 1463 1467 1472 1477